This demonstration page uses our WeatherBlox Daily Observations layout. Learn more.

Left ArrowRight Arrow

39.08367, -84.50855

Hourly Observations for March 26, 2023

Temp ( °F °C ) Dew Point ( °F °C ) Humidity (%) Winds ( mph kmh ) Pressure ( in mb ) Visibility ( mi km ) Precip ( " mm )
12:53 am 00:53 Clear 37 2.8 36 2.2 96 96 Calm 29.99 1016 10 16 0.00 0.00
1:53 am 01:53 Clear 36 2.2 36 2.2 100 100 Calm 30.01 1016 10 16 0.00 0.00
2:53 am 02:53 Clear 34 1.1 34 1.1 100 100 Calm 30.02 1017 10 16 0.00 0.00
3:15 am 03:15 Clear with Mist and Fog 35 1.7 34 1.1 96 96 Calm 30.05 1017 2 3 0.00 0.00
3:23 am 03:23 Clear 34 1.1 34 1.1 100 100 Calm 30.05 1017 8 13 0.00 0.00
3:37 am 03:37 Clear with Mist and Fog 32 0 31 -0.6 96 96 Calm 30.05 1018 2 3 0.00 0.00
3:46 am 03:46 Clear with Mist and Fog 33 0.6 33 0.6 100 100 Calm 30.05 1018 4 6 0.00 0.00
3:53 am 03:53 Clear 34 1.1 34 1.1 100 100 Calm 30.03 1017 10 16 0.00 0.00
4:15 am 04:15 Clear with Mist and Fog 33 0.6 33 0.6 100 100 Calm 30.06 1018 2 3 0.00 0.00
4:21 am 04:21 Clear with Mist and Fog 34 1.1 34 1.1 100 100 Calm 30.06 1018 4 6 0.00 0.00
4:44 am 04:44 Clear with Mist and Fog 33 0.6 33 0.6 100 100 Calm 30.06 1018 2 2 0.00 0.00
4:53 am 04:53 Clear with Mist and Fog 33 0.6 33 0.6 100 100 Calm 30.03 1017 2 3 0.00 0.00
5:04 am 05:04 Clear with Mist and Fog 33 0.6 33 0.6 100 100 Calm 30.06 1018 1 1 0.00 0.00
5:07 am 05:07 Clear with Mist and Fog 32 0 32 0 100 100 Calm 30.06 1018 2 3 0.00 0.00
5:22 am 05:22 Clear with Mist and Fog 33 0.6 33 0.6 100 100 Calm 30.07 1018 5 8 0.00 0.00
5:30 am 05:30 Clear with Mist and Fog 33 0.6 33 0.6 100 100 Calm 30.07 1018 2 3 0.00 0.00
5:40 am 05:40 Clear with Mist and Fog 33 0.6 33 0.6 100 100 Calm 30.07 1018 3 5 0.00 0.00
5:48 am 05:48 Clear with Mist and Fog 34 1 34 1 100 100 Calm 30.07 1018 2 3 0.00 0.00
5:53 am 05:53 Clear with Mist and Fog 33 0.6 33 0.6 100 100 Calm 30.05 1018 1 2 0.00 0.00
6:00 am 06:00 Clear with Mist and Fog 32 0 32 0 100 100 Calm 30.07 1018 1 1 0.00 0.00
6:20 am 06:20 Mostly Clear with Mist and Fog 32 0 31 -0.6 96 96 NE 3 6 30.07 1018 1 2 0.00 0.00
6:24 am 06:24 Cloudy with Mist and Fog 32 0 32 0 100 100 NE 3 6 30.07 1018 1 1 0.00 0.00
6:35 am 06:35 Cloudy with Fog 32 0 32 0 100 100 Calm 30.07 1018 0 0 0.00 0.00
6:41 am 06:41 Cloudy with Mist and Fog 32 0 32 0 100 100 Calm 30.07 1018 1 2 0.00 0.00
6:50 am 06:50 Partly Cloudy with Mist and Fog 32 0 32 0 100 100 Calm 30.08 1019 5 8 0.00 0.00
6:53 am 06:53 Mostly Clear with Mist and Fog 32 0 32 0 100 100 Calm 30.05 1018 3 5 0.00 0.00
7:42 am 07:42 Mostly Cloudy with Mist and Fog 33 0.6 33 0.6 100 100 Calm 30.09 1019 3 5 0.00 0.00
7:53 am 07:53 Cloudy with Freezing Fog 31 -0.6 31 -0.6 100 100 Calm 30.07 1018 0 0 0.00 0.00
8:11 am 08:11 Cloudy with Mist and Fog 32 0 32 0 100 100 Calm 30.10 1019 1 1 0.00 0.00
8:26 am 08:26 Mostly Cloudy with Mist and Fog 34 1.1 34 1.1 100 100 Calm 30.11 1019 3 4 0.00 0.00
8:28 am 08:28 Partly Cloudy with Mist and Fog 34 1.1 34 1.1 100 100 undefined N/A 30.11 1019 3 5 0.00 0.00
8:53 am 08:53 Sunny 35 1.7 35 1.7 100 100 Calm 30.08 1019 8 13 0.00 0.00
9:53 am 09:53 Sunny 41 5 39 3.9 93 93 Calm 30.07 1018 10 16 0.00 0.00
10:53 am 10:53 Sunny 50 10 40 4.4 68 68 Calm 30.05 1018 10 16 0.00 0.00
11:53 am 11:53 Sunny 56 13.3 37 2.8 49 49 S 7 11 30.05 1018 10 16 0.00 0.00
12:53 pm 12:53 Sunny 59 15 37 2.8 44 44 SSE 8 13 30.04 1017 10 16 0.00 0.00
1:53 pm 13:53 Sunny 61 16.1 36 2.2 39 39 VRB 6 9 30.03 1017 10 16 0.00 0.00
2:53 pm 14:53 Sunny 62 16.7 34 1.1 35 35 SSE 10 17 30.00 1016 10 16 0.00 0.00
3:53 pm 15:53 Sunny 64 17.8 34 1.1 32 32 SSE 8 13 30.00 1016 10 16 0.00 0.00
4:53 pm 16:53 Sunny 65 18.3 36 2.2 34 34 SSE 5 7 30.00 1016 10 16 0.00 0.00
5:53 pm 17:53 Sunny 64 17.8 37 2.8 37 37 S 8 13 29.98 1015 10 16 0.00 0.00
6:53 pm 18:53 Sunny 62 16.7 38 3.3 41 41 SSW 8 13 29.96 1015 10 16 0.00 0.00
7:53 pm 19:53 Sunny 60 15.6 34 1.1 37 37 S 3 6 29.95 1014 10 16 0.00 0.00
8:53 pm 20:53 Clear 52 11.1 41 5 66 66 Calm 29.95 1014 10 16 0.00 0.00
9:53 pm 21:53 Clear 47 8.3 42 5.6 83 83 Calm 29.96 1014 10 16 0.00 0.00
10:53 pm 22:53 Clear 44 6.7 39 3.9 82 82 Calm 29.94 1014 10 16 0.00 0.00
11:53 pm 23:53 Clear 46 7.8 41 5 82 82 Calm 29.92 1013 10 16 0.00 0.00

Powered by AerisWeather